timestamp,waterbody_station,lease,latitude,longitude,deployment_start_date,deployment_end_date,sensor,depth,mooring,Dissolved Oxygen_percent saturation,Temperature_degrees Celsius,Salinity_practical salinity units
2022-04-12T00:00:00,Annapolis Basin-Lobster Ledge,,44.678248,-65.683392,2021-06-16,2022-06-20,VR2AR-547094,6.0,fixed,,5.2,
2022-04-12T00:07:00,Annapolis Basin-Lobster Ledge,,44.678248,-65.683392,2021-06-16,2022-06-20,aquaMeasure-670356,4.0,fixed,,5.6,
2022-04-12T00:07:00,Annapolis Basin-1042,1042.0,44.652855,-65.674531,2021-08-27,2022-05-23,aquaMeasure-671014,0.5,float,109.5,5.68,
2022-04-12T00:17:00,Annapolis Basin-Lobster Ledge,,44.678248,-65.683392,2021-06-16,2022-06-20,aquaMeasure-670356,4.0,fixed,,5.62,
2022-04-12T00:27:00,Annapolis Basin-Lobster Ledge,,44.678248,-65.683392,2021-06-16,2022-06-20,aquaMeasure-670356,4.0,fixed,,5.62,
2022-04-12T00:37:00,Annapolis Basin-Lobster Ledge,,44.678248,-65.683392,2021-06-16,2022-06-20,aquaMeasure-670356,4.0,fixed,,5.62,
2022-04-12T00:47:00,Annapolis Basin-Lobster Ledge,,44.678248,-65.683392,2021-06-16,2022-06-20,aquaMeasure-670356,4.0,fixed,,5.62,
2022-04-12T00:57:00,Annapolis Basin-Lobster Ledge,,44.678248,-65.683392,2021-06-16,2022-06-20,aquaMeasure-670356,4.0,fixed,,5.64,
2022-04-12T01:00:00,Annapolis Basin-Lobster Ledge,,44.678248,-65.683392,2021-06-16,2022-06-20,VR2AR-547094,6.0,fixed,,5.2,
2022-04-12T01:07:00,Annapolis Basin-1042,1042.0,44.652855,-65.674531,2021-08-27,2022-05-23,aquaMeasure-671014,0.5,float,109.4,5.66,
2022-04-12T01:07:00,Annapolis Basin-Lobster Ledge,,44.678248,-65.683392,2021-06-16,2022-06-20,aquaMeasure-670356,4.0,fixed,,5.6,
2022-04-12T01:17:00,Annapolis Basin-Lobster Ledge,,44.678248,-65.683392,2021-06-16,2022-06-20,aquaMeasure-670356,4.0,fixed,,5.6,
2022-04-12T01:27:00,Annapolis Basin-Lobster Ledge,,44.678248,-65.683392,2021-06-16,2022-06-20,aquaMeasure-670356,4.0,fixed,,5.62,
2022-04-12T01:37:00,Annapolis Basin-Lobster Ledge,,44.678248,-65.683392,2021-06-16,2022-06-20,aquaMeasure-670356,4.0,fixed,,5.64,
2022-04-12T01:47:00,Annapolis Basin-Lobster Ledge,,44.678248,-65.683392,2021-06-16,2022-06-20,aquaMeasure-670356,4.0,fixed,,5.64,
2022-04-12T01:57:00,Annapolis Basin-Lobster Ledge,,44.678248,-65.683392,2021-06-16,2022-06-20,aquaMeasure-670356,4.0,fixed,,5.64,
2022-04-12T02:00:00,Annapolis Basin-Lobster Ledge,,44.678248,-65.683392,2021-06-16,2022-06-20,VR2AR-547094,6.0,fixed,,5.3,
2022-04-12T02:07:00,Annapolis Basin-Lobster Ledge,,44.678248,-65.683392,2021-06-16,2022-06-20,aquaMeasure-670356,4.0,fixed,,5.66,
2022-04-12T02:07:00,Annapolis Basin-1042,1042.0,44.652855,-65.674531,2021-08-27,2022-05-23,aquaMeasure-671014,0.5,float,109.4,5.74,
2022-04-12T02:17:00,Annapolis Basin-Lobster Ledge,,44.678248,-65.683392,2021-06-16,2022-06-20,aquaMeasure-670356,4.0,fixed,,5.68,
2022-04-12T02:27:00,Annapolis Basin-Lobster Ledge,,44.678248,-65.683392,2021-06-16,2022-06-20,aquaMeasure-670356,4.0,fixed,,5.7,
2022-04-12T02:37:00,Annapolis Basin-Lobster Ledge,,44.678248,-65.683392,2021-06-16,2022-06-20,aquaMeasure-670356,4.0,fixed,,5.76,
2022-04-12T02:47:00,Annapolis Basin-Lobster Ledge,,44.678248,-65.683392,2021-06-16,2022-06-20,aquaMeasure-670356,4.0,fixed,,5.76,
2022-04-12T02:57:00,Annapolis Basin-Lobster Ledge,,44.678248,-65.683392,2021-06-16,2022-06-20,aquaMeasure-670356,4.0,fixed,,5.84,
2022-04-12T03:00:00,Annapolis Basin-Lobster Ledge,,44.678248,-65.683392,2021-06-16,2022-06-20,VR2AR-547094,6.0,fixed,,5.3,
2022-04-12T03:07:00,Annapolis Basin-Lobster Ledge,,44.678248,-65.683392,2021-06-16,2022-06-20,aquaMeasure-670356,4.0,fixed,,5.86,
2022-04-12T03:07:00,Annapolis Basin-1042,1042.0,44.652855,-65.674531,2021-08-27,2022-05-23,aquaMeasure-671014,0.5,float,110.6,5.94,
2022-04-12T03:17:00,Annapolis Basin-Lobster Ledge,,44.678248,-65.683392,2021-06-16,2022-06-20,aquaMeasure-670356,4.0,fixed,,5.94,
2022-04-12T03:27:00,Annapolis Basin-Lobster Ledge,,44.678248,-65.683392,2021-06-16,2022-06-20,aquaMeasure-670356,4.0,fixed,,5.84,
2022-04-12T03:37:00,Annapolis Basin-Lobster Ledge,,44.678248,-65.683392,2021-06-16,2022-06-20,aquaMeasure-670356,4.0,fixed,,5.9,
2022-04-12T03:47:00,Annapolis Basin-Lobster Ledge,,44.678248,-65.683392,2021-06-16,2022-06-20,aquaMeasure-670356,4.0,fixed,,5.98,
2022-04-12T03:57:00,Annapolis Basin-Lobster Ledge,,44.678248,-65.683392,2021-06-16,2022-06-20,aquaMeasure-670356,4.0,fixed,,6.0,
2022-04-12T04:00:00,Annapolis Basin-Lobster Ledge,,44.678248,-65.683392,2021-06-16,2022-06-20,VR2AR-547094,6.0,fixed,,5.3,
2022-04-12T04:07:00,Annapolis Basin-Lobster Ledge,,44.678248,-65.683392,2021-06-16,2022-06-20,aquaMeasure-670356,4.0,fixed,,6.1,
2022-04-12T04:07:00,Annapolis Basin-1042,1042.0,44.652855,-65.674531,2021-08-27,2022-05-23,aquaMeasure-671014,0.5,float,112.1,6.24,
2022-04-12T04:17:00,Annapolis Basin-Lobster Ledge,,44.678248,-65.683392,2021-06-16,2022-06-20,aquaMeasure-670356,4.0,fixed,,6.12,
2022-04-12T04:27:00,Annapolis Basin-Lobster Ledge,,44.678248,-65.683392,2021-06-16,2022-06-20,aquaMeasure-670356,4.0,fixed,,6.16,
2022-04-12T04:37:00,Annapolis Basin-Lobster Ledge,,44.678248,-65.683392,2021-06-16,2022-06-20,aquaMeasure-670356,4.0,fixed,,6.24,
2022-04-12T04:47:00,Annapolis Basin-Lobster Ledge,,44.678248,-65.683392,2021-06-16,2022-06-20,aquaMeasure-670356,4.0,fixed,,6.32,
2022-04-12T04:57:00,Annapolis Basin-Lobster Ledge,,44.678248,-65.683392,2021-06-16,2022-06-20,aquaMeasure-670356,4.0,fixed,,6.32,
2022-04-12T05:00:00,Annapolis Basin-Lobster Ledge,,44.678248,-65.683392,2021-06-16,2022-06-20,VR2AR-547094,6.0,fixed,,5.5,
2022-04-12T05:07:00,Annapolis Basin-1042,1042.0,44.652855,-65.674531,2021-08-27,2022-05-23,aquaMeasure-671014,0.5,float,113.1,6.44,
2022-04-12T05:07:00,Annapolis Basin-Lobster Ledge,,44.678248,-65.683392,2021-06-16,2022-06-20,aquaMeasure-670356,4.0,fixed,,6.34,
2022-04-12T05:17:00,Annapolis Basin-Lobster Ledge,,44.678248,-65.683392,2021-06-16,2022-06-20,aquaMeasure-670356,4.0,fixed,,6.38,
2022-04-12T05:27:00,Annapolis Basin-Lobster Ledge,,44.678248,-65.683392,2021-06-16,2022-06-20,aquaMeasure-670356,4.0,fixed,,6.44,
2022-04-12T05:37:00,Annapolis Basin-Lobster Ledge,,44.678248,-65.683392,2021-06-16,2022-06-20,aquaMeasure-670356,4.0,fixed,,6.46,
2022-04-12T05:47:00,Annapolis Basin-Lobster Ledge,,44.678248,-65.683392,2021-06-16,2022-06-20,aquaMeasure-670356,4.0,fixed,,6.52,
2022-04-12T05:57:00,Annapolis Basin-Lobster Ledge,,44.678248,-65.683392,2021-06-16,2022-06-20,aquaMeasure-670356,4.0,fixed,,6.36,
2022-04-12T06:00:00,Annapolis Basin-Lobster Ledge,,44.678248,-65.683392,2021-06-16,2022-06-20,VR2AR-547094,6.0,fixed,,5.4,
2022-04-12T06:07:00,Annapolis Basin-Lobster Ledge,,44.678248,-65.683392,2021-06-16,2022-06-20,aquaMeasure-670356,4.0,fixed,,6.44,
2022-04-12T06:07:00,Annapolis Basin-1042,1042.0,44.652855,-65.674531,2021-08-27,2022-05-23,aquaMeasure-671014,0.5,float,112.3,6.2,
2022-04-12T06:17:00,Annapolis Basin-Lobster Ledge,,44.678248,-65.683392,2021-06-16,2022-06-20,aquaMeasure-670356,4.0,fixed,,6.32,
2022-04-12T06:27:00,Annapolis Basin-Lobster Ledge,,44.678248,-65.683392,2021-06-16,2022-06-20,aquaMeasure-670356,4.0,fixed,,6.32,
2022-04-12T06:37:00,Annapolis Basin-Lobster Ledge,,44.678248,-65.683392,2021-06-16,2022-06-20,aquaMeasure-670356,4.0,fixed,,6.34,
2022-04-12T06:47:00,Annapolis Basin-Lobster Ledge,,44.678248,-65.683392,2021-06-16,2022-06-20,aquaMeasure-670356,4.0,fixed,,6.4,
2022-04-12T06:57:00,Annapolis Basin-Lobster Ledge,,44.678248,-65.683392,2021-06-16,2022-06-20,aquaMeasure-670356,4.0,fixed,,6.34,
2022-04-12T07:00:00,Annapolis Basin-Lobster Ledge,,44.678248,-65.683392,2021-06-16,2022-06-20,VR2AR-547094,6.0,fixed,,5.4,
2022-04-12T07:07:00,Annapolis Basin-Lobster Ledge,,44.678248,-65.683392,2021-06-16,2022-06-20,aquaMeasure-670356,4.0,fixed,,6.36,
2022-04-12T07:07:00,Annapolis Basin-1042,1042.0,44.652855,-65.674531,2021-08-27,2022-05-23,aquaMeasure-671014,0.5,float,111.0,6.06,
2022-04-12T07:17:00,Annapolis Basin-Lobster Ledge,,44.678248,-65.683392,2021-06-16,2022-06-20,aquaMeasure-670356,4.0,fixed,,6.46,
2022-04-12T07:27:00,Annapolis Basin-Lobster Ledge,,44.678248,-65.683392,2021-06-16,2022-06-20,aquaMeasure-670356,4.0,fixed,,6.46,
2022-04-12T07:37:00,Annapolis Basin-Lobster Ledge,,44.678248,-65.683392,2021-06-16,2022-06-20,aquaMeasure-670356,4.0,fixed,,6.42,
2022-04-12T07:47:00,Annapolis Basin-Lobster Ledge,,44.678248,-65.683392,2021-06-16,2022-06-20,aquaMeasure-670356,4.0,fixed,,6.12,
2022-04-12T07:57:00,Annapolis Basin-Lobster Ledge,,44.678248,-65.683392,2021-06-16,2022-06-20,aquaMeasure-670356,4.0,fixed,,5.94,
2022-04-12T08:00:00,Annapolis Basin-Lobster Ledge,,44.678248,-65.683392,2021-06-16,2022-06-20,VR2AR-547094,6.0,fixed,,5.5,
2022-04-12T08:07:00,Annapolis Basin-1042,1042.0,44.652855,-65.674531,2021-08-27,2022-05-23,aquaMeasure-671014,0.5,float,114.5,6.08,
2022-04-12T08:07:00,Annapolis Basin-Lobster Ledge,,44.678248,-65.683392,2021-06-16,2022-06-20,aquaMeasure-670356,4.0,fixed,,5.76,
2022-04-12T08:17:00,Annapolis Basin-Lobster Ledge,,44.678248,-65.683392,2021-06-16,2022-06-20,aquaMeasure-670356,4.0,fixed,,5.7,
2022-04-12T08:27:00,Annapolis Basin-Lobster Ledge,,44.678248,-65.683392,2021-06-16,2022-06-20,aquaMeasure-670356,4.0,fixed,,5.66,
2022-04-12T08:37:00,Annapolis Basin-Lobster Ledge,,44.678248,-65.683392,2021-06-16,2022-06-20,aquaMeasure-670356,4.0,fixed,,5.64,
2022-04-12T08:47:00,Annapolis Basin-Lobster Ledge,,44.678248,-65.683392,2021-06-16,2022-06-20,aquaMeasure-670356,4.0,fixed,,5.64,
2022-04-12T08:57:00,Annapolis Basin-Lobster Ledge,,44.678248,-65.683392,2021-06-16,2022-06-20,aquaMeasure-670356,4.0,fixed,,5.64,
2022-04-12T09:00:00,Annapolis Basin-Lobster Ledge,,44.678248,-65.683392,2021-06-16,2022-06-20,VR2AR-547094,6.0,fixed,,5.3,
2022-04-12T09:07:00,Annapolis Basin-1042,1042.0,44.652855,-65.674531,2021-08-27,2022-05-23,aquaMeasure-671014,0.5,float,113.6,5.82,
2022-04-12T09:07:00,Annapolis Basin-Lobster Ledge,,44.678248,-65.683392,2021-06-16,2022-06-20,aquaMeasure-670356,4.0,fixed,,5.64,
2022-04-12T09:17:00,Annapolis Basin-Lobster Ledge,,44.678248,-65.683392,2021-06-16,2022-06-20,aquaMeasure-670356,4.0,fixed,,5.66,
2022-04-12T09:27:00,Annapolis Basin-Lobster Ledge,,44.678248,-65.683392,2021-06-16,2022-06-20,aquaMeasure-670356,4.0,fixed,,5.66,
2022-04-12T09:37:00,Annapolis Basin-Lobster Ledge,,44.678248,-65.683392,2021-06-16,2022-06-20,aquaMeasure-670356,4.0,fixed,,5.66,
2022-04-12T09:47:00,Annapolis Basin-Lobster Ledge,,44.678248,-65.683392,2021-06-16,2022-06-20,aquaMeasure-670356,4.0,fixed,,5.66,
2022-04-12T09:57:00,Annapolis Basin-Lobster Ledge,,44.678248,-65.683392,2021-06-16,2022-06-20,aquaMeasure-670356,4.0,fixed,,5.68,
2022-04-12T10:00:00,Annapolis Basin-Lobster Ledge,,44.678248,-65.683392,2021-06-16,2022-06-20,VR2AR-547094,6.0,fixed,,5.3,
2022-04-12T10:07:00,Annapolis Basin-Lobster Ledge,,44.678248,-65.683392,2021-06-16,2022-06-20,aquaMeasure-670356,4.0,fixed,,5.68,
2022-04-12T10:07:00,Annapolis Basin-1042,1042.0,44.652855,-65.674531,2021-08-27,2022-05-23,aquaMeasure-671014,0.5,float,108.1,5.64,
2022-04-12T10:17:00,Annapolis Basin-Lobster Ledge,,44.678248,-65.683392,2021-06-16,2022-06-20,aquaMeasure-670356,4.0,fixed,,5.66,
2022-04-12T10:27:00,Annapolis Basin-Lobster Ledge,,44.678248,-65.683392,2021-06-16,2022-06-20,aquaMeasure-670356,4.0,fixed,,5.66,
2022-04-12T10:37:00,Annapolis Basin-Lobster Ledge,,44.678248,-65.683392,2021-06-16,2022-06-20,aquaMeasure-670356,4.0,fixed,,5.68,
2022-04-12T10:47:00,Annapolis Basin-Lobster Ledge,,44.678248,-65.683392,2021-06-16,2022-06-20,aquaMeasure-670356,4.0,fixed,,5.68,
2022-04-12T10:57:00,Annapolis Basin-Lobster Ledge,,44.678248,-65.683392,2021-06-16,2022-06-20,aquaMeasure-670356,4.0,fixed,,5.68,
2022-04-12T11:00:00,Annapolis Basin-Lobster Ledge,,44.678248,-65.683392,2021-06-16,2022-06-20,VR2AR-547094,6.0,fixed,,5.3,
2022-04-12T11:07:00,Annapolis Basin-Lobster Ledge,,44.678248,-65.683392,2021-06-16,2022-06-20,aquaMeasure-670356,4.0,fixed,,5.68,
2022-04-12T11:07:00,Annapolis Basin-1042,1042.0,44.652855,-65.674531,2021-08-27,2022-05-23,aquaMeasure-671014,0.5,float,110.6,5.66,
2022-04-12T11:17:00,Annapolis Basin-Lobster Ledge,,44.678248,-65.683392,2021-06-16,2022-06-20,aquaMeasure-670356,4.0,fixed,,5.68,
2022-04-12T11:27:00,Annapolis Basin-Lobster Ledge,,44.678248,-65.683392,2021-06-16,2022-06-20,aquaMeasure-670356,4.0,fixed,,5.68,
2022-04-12T11:37:00,Annapolis Basin-Lobster Ledge,,44.678248,-65.683392,2021-06-16,2022-06-20,aquaMeasure-670356,4.0,fixed,,5.68,
2022-04-12T11:47:00,Annapolis Basin-Lobster Ledge,,44.678248,-65.683392,2021-06-16,2022-06-20,aquaMeasure-670356,4.0,fixed,,5.68,
2022-04-12T11:57:00,Annapolis Basin-Lobster Ledge,,44.678248,-65.683392,2021-06-16,2022-06-20,aquaMeasure-670356,4.0,fixed,,5.68,
2022-04-12T12:00:00,Annapolis Basin-Lobster Ledge,,44.678248,-65.683392,2021-06-16,2022-06-20,VR2AR-547094,6.0,fixed,,5.3,
2022-04-12T12:07:00,Annapolis Basin-Lobster Ledge,,44.678248,-65.683392,2021-06-16,2022-06-20,aquaMeasure-670356,4.0,fixed,,5.66,
2022-04-12T12:07:00,Annapolis Basin-1042,1042.0,44.652855,-65.674531,2021-08-27,2022-05-23,aquaMeasure-671014,0.5,float,112.8,5.78,
2022-04-12T12:17:00,Annapolis Basin-Lobster Ledge,,44.678248,-65.683392,2021-06-16,2022-06-20,aquaMeasure-670356,4.0,fixed,,5.68,
2022-04-12T12:27:00,Annapolis Basin-Lobster Ledge,,44.678248,-65.683392,2021-06-16,2022-06-20,aquaMeasure-670356,4.0,fixed,,5.66,
2022-04-12T12:37:00,Annapolis Basin-Lobster Ledge,,44.678248,-65.683392,2021-06-16,2022-06-20,aquaMeasure-670356,4.0,fixed,,5.68,
2022-04-12T12:47:00,Annapolis Basin-Lobster Ledge,,44.678248,-65.683392,2021-06-16,2022-06-20,aquaMeasure-670356,4.0,fixed,,5.7,
2022-04-12T12:57:00,Annapolis Basin-Lobster Ledge,,44.678248,-65.683392,2021-06-16,2022-06-20,aquaMeasure-670356,4.0,fixed,,5.68,
2022-04-12T13:00:00,Annapolis Basin-Lobster Ledge,,44.678248,-65.683392,2021-06-16,2022-06-20,VR2AR-547094,6.0,fixed,,5.3,
2022-04-12T13:07:00,Annapolis Basin-1042,1042.0,44.652855,-65.674531,2021-08-27,2022-05-23,aquaMeasure-671014,0.5,float,111.7,5.88,
2022-04-12T13:07:00,Annapolis Basin-Lobster Ledge,,44.678248,-65.683392,2021-06-16,2022-06-20,aquaMeasure-670356,4.0,fixed,,5.7,
2022-04-12T13:17:00,Annapolis Basin-Lobster Ledge,,44.678248,-65.683392,2021-06-16,2022-06-20,aquaMeasure-670356,4.0,fixed,,5.7,
2022-04-12T13:27:00,Annapolis Basin-Lobster Ledge,,44.678248,-65.683392,2021-06-16,2022-06-20,aquaMeasure-670356,4.0,fixed,,5.7,
2022-04-12T13:37:00,Annapolis Basin-Lobster Ledge,,44.678248,-65.683392,2021-06-16,2022-06-20,aquaMeasure-670356,4.0,fixed,,5.7,
2022-04-12T13:47:00,Annapolis Basin-Lobster Ledge,,44.678248,-65.683392,2021-06-16,2022-06-20,aquaMeasure-670356,4.0,fixed,,5.72,
2022-04-12T13:57:00,Annapolis Basin-Lobster Ledge,,44.678248,-65.683392,2021-06-16,2022-06-20,aquaMeasure-670356,4.0,fixed,,5.7,
2022-04-12T14:00:00,Annapolis Basin-Lobster Ledge,,44.678248,-65.683392,2021-06-16,2022-06-20,VR2AR-547094,6.0,fixed,,5.4,
2022-04-12T14:07:00,Annapolis Basin-Lobster Ledge,,44.678248,-65.683392,2021-06-16,2022-06-20,aquaMeasure-670356,4.0,fixed,,5.7,
2022-04-12T14:07:00,Annapolis Basin-1042,1042.0,44.652855,-65.674531,2021-08-27,2022-05-23,aquaMeasure-671014,0.5,float,110.8,5.78,
2022-04-12T14:17:00,Annapolis Basin-Lobster Ledge,,44.678248,-65.683392,2021-06-16,2022-06-20,aquaMeasure-670356,4.0,fixed,,5.7,
2022-04-12T14:27:00,Annapolis Basin-Lobster Ledge,,44.678248,-65.683392,2021-06-16,2022-06-20,aquaMeasure-670356,4.0,fixed,,5.68,
2022-04-12T14:37:00,Annapolis Basin-Lobster Ledge,,44.678248,-65.683392,2021-06-16,2022-06-20,aquaMeasure-670356,4.0,fixed,,5.7,
2022-04-12T14:47:00,Annapolis Basin-Lobster Ledge,,44.678248,-65.683392,2021-06-16,2022-06-20,aquaMeasure-670356,4.0,fixed,,5.72,
2022-04-12T14:57:00,Annapolis Basin-Lobster Ledge,,44.678248,-65.683392,2021-06-16,2022-06-20,aquaMeasure-670356,4.0,fixed,,5.74,
2022-04-12T15:00:00,Annapolis Basin-Lobster Ledge,,44.678248,-65.683392,2021-06-16,2022-06-20,VR2AR-547094,6.0,fixed,,5.4,
2022-04-12T15:07:00,Annapolis Basin-1042,1042.0,44.652855,-65.674531,2021-08-27,2022-05-23,aquaMeasure-671014,0.5,float,111.2,5.82,
2022-04-12T15:07:00,Annapolis Basin-Lobster Ledge,,44.678248,-65.683392,2021-06-16,2022-06-20,aquaMeasure-670356,4.0,fixed,,5.78,
2022-04-12T15:17:00,Annapolis Basin-Lobster Ledge,,44.678248,-65.683392,2021-06-16,2022-06-20,aquaMeasure-670356,4.0,fixed,,5.82,
2022-04-12T15:27:00,Annapolis Basin-Lobster Ledge,,44.678248,-65.683392,2021-06-16,2022-06-20,aquaMeasure-670356,4.0,fixed,,5.86,
2022-04-12T15:37:00,Annapolis Basin-Lobster Ledge,,44.678248,-65.683392,2021-06-16,2022-06-20,aquaMeasure-670356,4.0,fixed,,5.88,
2022-04-12T15:47:00,Annapolis Basin-Lobster Ledge,,44.678248,-65.683392,2021-06-16,2022-06-20,aquaMeasure-670356,4.0,fixed,,5.9,
2022-04-12T15:57:00,Annapolis Basin-Lobster Ledge,,44.678248,-65.683392,2021-06-16,2022-06-20,aquaMeasure-670356,4.0,fixed,,5.9,
2022-04-12T16:00:00,Annapolis Basin-Lobster Ledge,,44.678248,-65.683392,2021-06-16,2022-06-20,VR2AR-547094,6.0,fixed,,5.4,
2022-04-12T16:07:00,Annapolis Basin-1042,1042.0,44.652855,-65.674531,2021-08-27,2022-05-23,aquaMeasure-671014,0.5,float,111.8,5.94,
2022-04-12T16:07:00,Annapolis Basin-Lobster Ledge,,44.678248,-65.683392,2021-06-16,2022-06-20,aquaMeasure-670356,4.0,fixed,,5.94,
2022-04-12T16:17:00,Annapolis Basin-Lobster Ledge,,44.678248,-65.683392,2021-06-16,2022-06-20,aquaMeasure-670356,4.0,fixed,,5.98,
2022-04-12T16:27:00,Annapolis Basin-Lobster Ledge,,44.678248,-65.683392,2021-06-16,2022-06-20,aquaMeasure-670356,4.0,fixed,,6.04,
2022-04-12T16:37:00,Annapolis Basin-Lobster Ledge,,44.678248,-65.683392,2021-06-16,2022-06-20,aquaMeasure-670356,4.0,fixed,,6.06,
2022-04-12T16:47:00,Annapolis Basin-Lobster Ledge,,44.678248,-65.683392,2021-06-16,2022-06-20,aquaMeasure-670356,4.0,fixed,,6.2,
2022-04-12T16:57:00,Annapolis Basin-Lobster Ledge,,44.678248,-65.683392,2021-06-16,2022-06-20,aquaMeasure-670356,4.0,fixed,,6.16,
2022-04-12T17:00:00,Annapolis Basin-Lobster Ledge,,44.678248,-65.683392,2021-06-16,2022-06-20,VR2AR-547094,6.0,fixed,,5.5,
2022-04-12T17:07:00,Annapolis Basin-1042,1042.0,44.652855,-65.674531,2021-08-27,2022-05-23,aquaMeasure-671014,0.5,float,111.1,5.98,
2022-04-12T17:07:00,Annapolis Basin-Lobster Ledge,,44.678248,-65.683392,2021-06-16,2022-06-20,aquaMeasure-670356,4.0,fixed,,6.16,
2022-04-12T17:17:00,Annapolis Basin-Lobster Ledge,,44.678248,-65.683392,2021-06-16,2022-06-20,aquaMeasure-670356,4.0,fixed,,6.14,
2022-04-12T17:27:00,Annapolis Basin-Lobster Ledge,,44.678248,-65.683392,2021-06-16,2022-06-20,aquaMeasure-670356,4.0,fixed,,6.12,
2022-04-12T17:36:00,Annapolis Basin-Lobster Ledge,,44.678248,-65.683392,2021-06-16,2022-06-20,aquaMeasure-670356,4.0,fixed,,6.14,
2022-04-12T17:46:00,Annapolis Basin-Lobster Ledge,,44.678248,-65.683392,2021-06-16,2022-06-20,aquaMeasure-670356,4.0,fixed,,6.22,
2022-04-12T17:56:00,Annapolis Basin-Lobster Ledge,,44.678248,-65.683392,2021-06-16,2022-06-20,aquaMeasure-670356,4.0,fixed,,6.26,
2022-04-12T18:00:00,Annapolis Basin-Lobster Ledge,,44.678248,-65.683392,2021-06-16,2022-06-20,VR2AR-547094,6.0,fixed,,5.6,
2022-04-12T18:06:00,Annapolis Basin-Lobster Ledge,,44.678248,-65.683392,2021-06-16,2022-06-20,aquaMeasure-670356,4.0,fixed,,6.22,
2022-04-12T18:07:00,Annapolis Basin-1042,1042.0,44.652855,-65.674531,2021-08-27,2022-05-23,aquaMeasure-671014,0.5,float,110.4,5.9,
2022-04-12T18:16:00,Annapolis Basin-Lobster Ledge,,44.678248,-65.683392,2021-06-16,2022-06-20,aquaMeasure-670356,4.0,fixed,,6.3,
2022-04-12T18:26:00,Annapolis Basin-Lobster Ledge,,44.678248,-65.683392,2021-06-16,2022-06-20,aquaMeasure-670356,4.0,fixed,,6.2,
2022-04-12T18:36:00,Annapolis Basin-Lobster Ledge,,44.678248,-65.683392,2021-06-16,2022-06-20,aquaMeasure-670356,4.0,fixed,,6.06,
2022-04-12T18:46:00,Annapolis Basin-Lobster Ledge,,44.678248,-65.683392,2021-06-16,2022-06-20,aquaMeasure-670356,4.0,fixed,,6.06,
2022-04-12T18:56:00,Annapolis Basin-Lobster Ledge,,44.678248,-65.683392,2021-06-16,2022-06-20,aquaMeasure-670356,4.0,fixed,,6.04,
2022-04-12T19:00:00,Annapolis Basin-Lobster Ledge,,44.678248,-65.683392,2021-06-16,2022-06-20,VR2AR-547094,6.0,fixed,,5.5,
2022-04-12T19:06:00,Annapolis Basin-Lobster Ledge,,44.678248,-65.683392,2021-06-16,2022-06-20,aquaMeasure-670356,4.0,fixed,,6.08,
2022-04-12T19:07:00,Annapolis Basin-1042,1042.0,44.652855,-65.674531,2021-08-27,2022-05-23,aquaMeasure-671014,0.5,float,111.0,5.94,
2022-04-12T19:16:00,Annapolis Basin-Lobster Ledge,,44.678248,-65.683392,2021-06-16,2022-06-20,aquaMeasure-670356,4.0,fixed,,6.12,
2022-04-12T19:26:00,Annapolis Basin-Lobster Ledge,,44.678248,-65.683392,2021-06-16,2022-06-20,aquaMeasure-670356,4.0,fixed,,6.16,
2022-04-12T19:36:00,Annapolis Basin-Lobster Ledge,,44.678248,-65.683392,2021-06-16,2022-06-20,aquaMeasure-670356,4.0,fixed,,6.16,
2022-04-12T19:46:00,Annapolis Basin-Lobster Ledge,,44.678248,-65.683392,2021-06-16,2022-06-20,aquaMeasure-670356,4.0,fixed,,6.16,
2022-04-12T19:56:00,Annapolis Basin-Lobster Ledge,,44.678248,-65.683392,2021-06-16,2022-06-20,aquaMeasure-670356,4.0,fixed,,5.98,
2022-04-12T20:00:00,Annapolis Basin-Lobster Ledge,,44.678248,-65.683392,2021-06-16,2022-06-20,VR2AR-547094,6.0,fixed,,5.6,
2022-04-12T20:06:00,Annapolis Basin-Lobster Ledge,,44.678248,-65.683392,2021-06-16,2022-06-20,aquaMeasure-670356,4.0,fixed,,6.02,
2022-04-12T20:07:00,Annapolis Basin-1042,1042.0,44.652855,-65.674531,2021-08-27,2022-05-23,aquaMeasure-671014,0.5,float,111.0,6.04,
2022-04-12T20:16:00,Annapolis Basin-Lobster Ledge,,44.678248,-65.683392,2021-06-16,2022-06-20,aquaMeasure-670356,4.0,fixed,,5.98,
2022-04-12T20:26:00,Annapolis Basin-Lobster Ledge,,44.678248,-65.683392,2021-06-16,2022-06-20,aquaMeasure-670356,4.0,fixed,,5.92,
2022-04-12T20:36:00,Annapolis Basin-Lobster Ledge,,44.678248,-65.683392,2021-06-16,2022-06-20,aquaMeasure-670356,4.0,fixed,,5.86,
2022-04-12T20:46:00,Annapolis Basin-Lobster Ledge,,44.678248,-65.683392,2021-06-16,2022-06-20,aquaMeasure-670356,4.0,fixed,,5.82,
2022-04-12T20:56:00,Annapolis Basin-Lobster Ledge,,44.678248,-65.683392,2021-06-16,2022-06-20,aquaMeasure-670356,4.0,fixed,,5.76,
2022-04-12T21:00:00,Annapolis Basin-Lobster Ledge,,44.678248,-65.683392,2021-06-16,2022-06-20,VR2AR-547094,6.0,fixed,,5.4,
2022-04-12T21:06:00,Annapolis Basin-Lobster Ledge,,44.678248,-65.683392,2021-06-16,2022-06-20,aquaMeasure-670356,4.0,fixed,,5.76,
2022-04-12T21:07:00,Annapolis Basin-1042,1042.0,44.652855,-65.674531,2021-08-27,2022-05-23,aquaMeasure-671014,0.5,float,113.7,5.82,
2022-04-12T21:16:00,Annapolis Basin-Lobster Ledge,,44.678248,-65.683392,2021-06-16,2022-06-20,aquaMeasure-670356,4.0,fixed,,5.74,
2022-04-12T21:26:00,Annapolis Basin-Lobster Ledge,,44.678248,-65.683392,2021-06-16,2022-06-20,aquaMeasure-670356,4.0,fixed,,5.76,
2022-04-12T21:36:00,Annapolis Basin-Lobster Ledge,,44.678248,-65.683392,2021-06-16,2022-06-20,aquaMeasure-670356,4.0,fixed,,5.74,
2022-04-12T21:46:00,Annapolis Basin-Lobster Ledge,,44.678248,-65.683392,2021-06-16,2022-06-20,aquaMeasure-670356,4.0,fixed,,5.74,
2022-04-12T21:56:00,Annapolis Basin-Lobster Ledge,,44.678248,-65.683392,2021-06-16,2022-06-20,aquaMeasure-670356,4.0,fixed,,5.74,
2022-04-12T22:00:00,Annapolis Basin-Lobster Ledge,,44.678248,-65.683392,2021-06-16,2022-06-20,VR2AR-547094,6.0,fixed,,5.4,
2022-04-12T22:06:00,Annapolis Basin-Lobster Ledge,,44.678248,-65.683392,2021-06-16,2022-06-20,aquaMeasure-670356,4.0,fixed,,5.74,
2022-04-12T22:07:00,Annapolis Basin-1042,1042.0,44.652855,-65.674531,2021-08-27,2022-05-23,aquaMeasure-671014,0.5,float,113.8,5.76,
2022-04-12T22:16:00,Annapolis Basin-Lobster Ledge,,44.678248,-65.683392,2021-06-16,2022-06-20,aquaMeasure-670356,4.0,fixed,,5.72,
2022-04-12T22:26:00,Annapolis Basin-Lobster Ledge,,44.678248,-65.683392,2021-06-16,2022-06-20,aquaMeasure-670356,4.0,fixed,,5.7,
2022-04-12T22:36:00,Annapolis Basin-Lobster Ledge,,44.678248,-65.683392,2021-06-16,2022-06-20,aquaMeasure-670356,4.0,fixed,,5.74,
2022-04-12T22:46:00,Annapolis Basin-Lobster Ledge,,44.678248,-65.683392,2021-06-16,2022-06-20,aquaMeasure-670356,4.0,fixed,,5.72,
2022-04-12T22:56:00,Annapolis Basin-Lobster Ledge,,44.678248,-65.683392,2021-06-16,2022-06-20,aquaMeasure-670356,4.0,fixed,,5.72,